CW0146 Weather Reports


Display with metric or nautical units.
time (UTC)temp
F
wind
direction
speed
MPH
gust
MPH
rain 1hr
in
rain 24hr
in
rain mn
in
humidity
%
barometer
mb
20260831130955 79 197 1.0 2.0 0.00 0.00 0.00 87 1017.0
20260831130454 79 173 2.0 4.0 0.00 0.00 0.00 88 1017.0
20260831125956 79 175 2.0 3.0 0.00 0.00 0.00 88 1017.0
20260831125455 79 187 2.0 3.0 0.00 0.00 0.00 88 1017.0
20260831124955 79 174 1.0 2.0 0.00 0.00 0.00 88 1016.0
20260831124454 79 360 0.0 0.0 0.00 0.00 0.00 88 1016.0
20260831123955 79 185 1.0 2.0 0.00 0.00 0.00 88 1016.0
20260831123454 79 207 0.0 1.0 0.00 0.00 0.00 88 1016.0
20260831122955 79 182 2.0 4.0 0.00 0.00 0.00 88 1016.0
20260831122454 79 178 1.0 4.0 0.00 0.00 0.00 87 1016.0
20260831121955 79 185 1.0 2.0 0.00 0.00 0.00 87 1016.0
20260831121454 79 161 3.0 4.0 0.00 0.00 0.00 88 1016.0
20260831120955 79 169 2.0 5.0 0.00 0.00 0.00 88 1016.0
20260831120454 79 163 1.0 3.0 0.00 0.00 0.00 87 1016.0
20260831115955 79 175 2.0 4.0 0.00 0.00 0.00 87 1016.0
20260831115455 79 168 2.0 5.0 0.00 0.00 0.00 87 1016.0
20260831114955 79 159 2.0 4.0 0.00 0.00 0.00 88 1016.0
20260831114454 79 168 1.0 2.0 0.00 0.00 0.00 88 1016.0
20260831113954 79 179 2.0 4.0 0.00 0.00 0.00 88 1016.0
20260831113454 79 243 0.0 1.0 0.00 0.00 0.00 88 1016.0
20260831112954 79 199 2.0 3.0 0.00 0.00 0.00 87 1016.0
20260831112455 79 176 1.0 5.0 0.00 0.00 0.00 87 1016.0
20260831111954 79 173 2.0 3.0 0.00 0.00 0.00 87 1016.0
20260831111456 79 174 2.0 4.0 0.00 0.00 0.00 86 1016.0
20260831110954 79 177 3.0 6.0 0.00 0.00 0.00 86 1016.0
20260831110457 79 163 2.0 4.0 0.00 0.00 0.00 86 1016.0
20260831105954 79 174 2.0 4.0 0.00 0.00 0.00 86 1016.0
20260831105454 80 193 1.0 2.0 0.00 0.00 0.00 86 1016.0
20260831104954 80 184 3.0 5.0 0.00 0.00 0.00 86 1016.0
20260831104455 80 173 3.0 4.0 0.00 0.00 0.00 86 1016.0
20260831103954 80 163 2.0 3.0 0.00 0.00 0.00 85 1016.0
20260831103455 80 171 4.0 6.0 0.00 0.00 0.00 85 1016.0
20260831102954 80 177 4.0 5.0 0.00 0.00 0.00 85 1016.0
20260831102456 80 165 3.0 6.0 0.00 0.00 0.00 85 1016.0
20260831101955 80 188 1.0 2.0 0.00 0.00 0.00 85 1016.0
20260831101456 80 184 1.0 4.0 0.00 0.00 0.00 85 1016.0
20260831100955 80 174 3.0 4.0 0.00 0.00 0.00 86 1016.0
20260831100454 80 175 3.0 4.0 0.00 0.00 0.00 86 1016.0
20260831095954 80 164 2.0 4.0 0.00 0.00 0.00 86 1016.0
20260831095455 80 172 2.0 4.0 0.00 0.00 0.00 85 1016.0
20260831094954 80 165 2.0 4.0 0.00 0.00 0.00 85 1016.0
20260831094456 80 177 1.0 3.0 0.00 0.00 0.00 85 1016.0
20260831093955 79 166 3.0 5.0 0.00 0.00 0.00 86 1016.0
20260831093454 79 174 2.0 4.0 0.00 0.00 0.00 86 1016.0
20260831092954 79 167 2.0 4.0 0.00 0.00 0.00 86 1016.0
20260831092455 79 168 4.0 7.0 0.00 0.00 0.00 86 1016.0
20260831091954 79 166 3.0 5.0 0.00 0.00 0.00 86 1016.0
20260831091454 79 178 2.0 4.0 0.00 0.00 0.00 85 1016.0
20260831090954 79 172 3.0 4.0 0.00 0.00 0.00 85 1016.0
20260831090455 79 163 3.0 7.0 0.00 0.00 0.00 85 1016.0
20260831085954 79 167 2.0 4.0 0.00 0.00 0.00 85 1016.0
20260831085455 79 174 5.0 7.0 0.00 0.00 0.00 85 1016.0
20260831084955 79 158 1.0 3.0 0.00 0.00 0.00 85 1016.0
20260831084454 80 183 3.0 6.0 0.00 0.00 0.00 84 1016.0
20260831083954 80 178 2.0 4.0 0.00 0.00 0.00 84 1016.0
20260831083458 80 186 4.0 10.0 0.00 0.00 0.00 84 1016.0
20260831082954 80 182 2.0 6.0 0.00 0.00 0.00 84 1016.0
20260831082454 80 164 4.0 9.0 0.00 0.00 0.00 84 1016.0
20260831081954 80 172 2.0 4.0 0.00 0.00 0.00 84 1016.0
20260831081455 80 167 3.0 6.0 0.00 0.00 0.00 83 1016.0
20260831080955 80 181 5.0 9.0 0.00 0.00 0.00 83 1016.0
20260831080454 80 178 4.0 6.0 0.00 0.00 0.00 82 1016.0
20260831075955 80 177 4.0 6.0 0.00 0.00 0.00 82 1016.0
20260831075454 80 185 2.0 6.0 0.00 0.00 0.00 81 1016.0
20260831074954 81 178 3.0 5.0 0.00 0.00 0.00 81 1016.0
20260831074454 81 173 3.0 7.0 0.00 0.00 0.00 79 1016.0
20260831073954 81 178 2.0 5.0 0.00 0.00 0.00 79 1016.0
20260831073455 81 159 3.0 6.0 0.00 0.00 0.00 78 1016.0
20260831072955 81 161 1.0 2.0 0.00 0.00 0.00 77 1016.0
20260831072455 81 179 4.0 8.0 0.00 0.00 0.00 77 1016.0
20260831071957 81 177 2.0 4.0 0.00 0.00 0.00 76 1016.0
20260831071454 81 181 4.0 6.0 0.00 0.00 0.00 76 1016.0
20260831070956 81 182 1.0 3.0 0.00 0.00 0.00 76 1016.0
20260831070454 82 150 1.0 3.0 0.00 0.00 0.00 75 1016.0
20260831065955 82 184 2.0 4.0 0.00 0.00 0.00 75 1016.0
20260831065455 82 192 2.0 3.0 0.00 0.00 0.00 74 1016.0
20260831064954 82 183 2.0 3.0 0.00 0.00 0.00 74 1016.0
20260831064455 82 160 2.0 4.0 0.00 0.00 0.00 73 1016.0
20260831063955 82 186 1.0 2.0 0.00 0.00 0.00 73 1016.0
20260831063455 82 157 0.0 2.0 0.00 0.00 0.00 72 1016.0
20260831062954 82 63 0.0 1.0 0.00 0.00 0.00 71 1016.0
20260831062455 83 92 1.0 3.0 0.00 0.00 0.00 71 1016.0
20260831061954 83 176 2.0 4.0 0.00 0.00 0.00 71 1016.0
20260831061454 83 143 1.0 2.0 0.00 0.00 0.00 70 1016.0
20260831060954 83 159 2.0 4.0 0.00 0.00 0.00 70 1016.0
20260831060454 83 162 0.0 2.0 0.00 0.00 0.00 69 1016.0
20260831055954 83 108 0.0 1.0 0.00 0.00 0.00 68 1016.0
20260831055454 83 192 0.0 2.0 0.00 0.00 0.00 68 1016.0
20260831054956 84 160 1.0 2.0 0.00 0.00 0.00 68 1016.0
20260831054457 84 144 0.0 2.0 0.00 0.00 0.00 67 1016.0
20260831053954 84 182 1.0 4.0 0.00 0.00 0.00 67 1016.0
20260831053454 84 195 2.0 6.0 0.00 0.00 0.00 66 1016.0
20260831052954 84 179 2.0 4.0 0.00 0.00 0.00 66 1016.0
20260831052456 84 117 1.0 2.0 0.00 0.00 0.00 65 1016.0
20260831051954 85 190 1.0 2.0 0.00 0.00 0.00 65 1016.0
20260831051454 85 143 2.0 4.0 0.00 0.00 0.00 64 1016.0
20260831050955 85 132 1.0 2.0 0.00 0.00 0.00 64 1016.0
20260831050454 85 171 2.0 5.0 0.00 0.00 0.00 63 1016.0
20260831045954 85 195 1.0 2.0 0.00 0.00 0.00 63 1016.0
20260831045455 85 182 1.0 2.0 0.00 0.00 0.00 62 1015.0
20260831044954 86 180 2.0 6.0 0.00 0.00 0.00 62 1015.0
20260831044454 86 122 1.0 4.0 0.00 0.00 0.00 61 1015.0
20260831043954 86 73 0.0 1.0 0.00 0.00 0.00 61 1015.0
20260831043455 86 193 2.0 5.0 0.00 0.00 0.00 61 1015.0
20260831042955 86 149 3.0 6.0 0.00 0.00 0.00 61 1015.0
20260831042454 86 137 1.0 3.0 0.00 0.00 0.00 61 1015.0
20260831041955 86 170 2.0 4.0 0.00 0.00 0.00 60 1015.0
20260831041455 87 166 3.0 6.0 0.00 0.00 0.00 60 1015.0
20260831040956 87 179 2.0 5.0 0.00 0.00 0.00 60 1015.0
20260831040454 87 152 1.0 2.0 0.00 0.00 0.00 60 1015.0
20260831035954 87 139 1.0 2.0 0.00 0.00 0.00 59 1015.0
20260831035454 87 73 2.0 4.0 0.00 0.00 0.00 59 1015.0
20260831034954 87 105 2.0 3.0 0.00 0.00 0.00 59 1015.0
20260831034454 87 106 2.0 3.0 0.00 0.00 0.00 59 1015.0
20260831033954 87 117 1.0 3.0 0.00 0.00 0.00 59 1015.0
20260831033454 87 99 2.0 4.0 0.00 0.00 0.00 58 1015.0
20260831032954 87 142 1.0 4.0 0.00 0.00 0.00 58 1015.0
20260831032454 88 165 1.0 3.0 0.00 0.00 0.00 58 1015.0
20260831031954 88 156 1.0 3.0 0.00 0.00 0.00 58 1015.0
20260831031455 88 152 1.0 4.0 0.00 0.00 0.00 58 1015.0
20260831030955 88 170 2.0 5.0 0.00 0.00 0.00 58 1015.0
20260831030454 88 154 2.0 4.0 0.00 0.00 0.00 58 1015.0
20260831025954 88 142 1.0 3.0 0.00 0.00 0.00 58 1015.0
20260831025454 88 166 1.0 2.0 0.00 0.00 0.00 58 1015.0
20260831024954 88 147 1.0 3.0 0.00 0.00 0.00 57 1015.0
20260831024454 89 112 1.0 3.0 0.00 0.00 0.00 57 1014.0
20260831023955 89 85 2.0 3.0 0.00 0.00 0.00 56 1014.0
20260831023454 89 137 2.0 5.0 0.00 0.00 0.00 56 1014.0
20260831022954 89 147 2.0 3.0 0.00 0.00 0.00 56 1014.0
20260831022455 89 159 1.0 3.0 0.00 0.00 0.00 56 1014.0
20260831021955 89 116 3.0 5.0 0.00 0.00 0.00 55 1014.0
20260831021454 90 116 2.0 3.0 0.00 0.00 0.00 54 1014.0
20260831020955 90 126 2.0 4.0 0.00 0.00 0.00 54 1014.0
20260831020454 90 111 3.0 6.0 0.00 0.00 0.00 52 1014.0
20260831015954 90 163 1.0 2.0 0.00 0.00 0.00 51 1014.0
20260831015454 90 97 3.0 6.0 0.00 0.00 0.00 47 1014.0
20260831014955 91 143 1.0 2.0 0.00 0.00 0.00 45 1014.0
20260831014454 91 123 0.0 1.0 0.00 0.00 0.00 44 1013.0
20260831013954 91 104 1.0 2.0 0.00 0.00 0.00 43 1013.0
20260831013454 91 85 1.0 2.0 0.00 0.00 0.00 43 1013.0
20260831012954 92 74 0.0 1.0 0.00 0.00 0.00 43 1013.0
20260831012454 92 92 0.0 2.0 0.00 0.00 0.00 42 1013.0
20260831011955 92 110 1.0 2.0 0.00 0.00 0.00 42 1013.0
20260831011455 92 103 1.0 2.0 0.00 0.00 0.00 42 1013.0
20260831010954 93 116 0.0 1.0 0.00 0.00 0.00 41 1013.0
20260831010454 93 157 1.0 2.0 0.00 0.00 0.00 42 1013.0
20260831005954 93 139 2.0 4.0 0.00 0.00 0.00 41 1013.0
20260831005455 93 121 1.0 2.0 0.00 0.00 0.00 41 1013.0
20260831004955 94 150 1.0 2.0 0.00 0.00 0.00 41 1013.0
20260831004455 94 102 1.0 2.0 0.00 0.00 0.00 41 1013.0
20260831003954 94 102 1.0 3.0 0.00 0.00 0.00 41 1013.0
20260831003454 95 115 1.0 3.0 0.00 0.00 0.00 41 1013.0
20260831002954 95 100 1.0 2.0 0.00 0.00 0.00 40 1013.0
20260831002454 96 166 1.0 2.0 0.00 0.00 0.00 40 1013.0
20260831001955 96 133 2.0 2.0 0.00 0.00 0.00 39 1013.0
20260831001454 97 115 2.0 3.0 0.00 0.00 0.00 39 1013.0
20260831000954 97 125 1.0 2.0 0.00 0.00 0.00 38 1013.0
20260831000454 97 157 1.0 2.0 0.00 0.00 0.00 37 1013.0
20260830235955 97 128 2.0 4.0 0.00 0.00 0.00 37 1013.0
20260830235454 98 120 1.0 2.0 0.00 0.00 0.00 37 1013.0
20260830234954 98 118 1.0 3.0 0.00 0.00 0.00 37 1013.0
20260830234454 98 137 2.0 4.0 0.00 0.00 0.00 37 1013.0
20260830233954 98 93 2.0 3.0 0.00 0.00 0.00 37 1013.0
20260830233454 98 124 1.0 2.0 0.00 0.00 0.00 37 1013.0
20260830232954 98 144 2.0 5.0 0.00 0.00 0.00 37 1013.0
20260830232454 98 83 2.0 4.0 0.00 0.00 0.00 36 1013.0
20260830231955 99 140 2.0 4.0 0.00 0.00 0.00 36 1013.0
20260830231454 99 190 2.0 3.0 0.00 0.00 0.00 38 1013.0
20260830230955 99 173 2.0 4.0 0.00 0.00 0.00 37 1013.0
20260830230454 99 172 2.0 4.0 0.00 0.00 0.00 37 1013.0
20260830225956 99 124 2.0 3.0 0.00 0.00 0.00 37 1013.0
20260830225454 99 135 2.0 5.0 0.00 0.00 0.00 38 1013.0
20260830224954 99 183 2.0 4.0 0.00 0.00 0.00 38 1013.0
20260830224454 99 150 2.0 3.0 0.00 0.00 0.00 37 1013.0
20260830223954 98 183 3.0 4.0 0.00 0.00 0.00 37 1013.0
20260830223455 97 134 2.0 4.0 0.00 0.00 0.00 38 1013.0
20260830222954 97 143 2.0 2.0 0.00 0.00 0.00 40 1013.0
20260830222454 97 139 2.0 2.0 0.00 0.00 0.00 40 1013.0
20260830221954 97 157 1.0 2.0 0.00 0.00 0.00 41 1013.0
20260830221454 98 113 1.0 2.0 0.00 0.00 0.00 39 1013.0
20260830220954 98 106 1.0 2.0 0.00 0.00 0.00 40 1013.0
20260830220454 98 129 2.0 4.0 0.00 0.00 0.00 39 1013.0
20260830215954 98 86 2.0 4.0 0.00 0.00 0.00 39 1013.0
20260830215454 98 102 2.0 4.0 0.00 0.00 0.00 40 1013.0
20260830214955 98 172 2.0 4.0 0.00 0.00 0.00 39 1013.0
20260830214454 98 98 2.0 3.0 0.00 0.00 0.00 39 1013.0
20260830213954 99 124 2.0 3.0 0.00 0.00 0.00 39 1013.0
20260830213454 100 130 1.0 3.0 0.00 0.00 0.00 39 1013.0
20260830212954 100 143 2.0 5.0 0.00 0.00 0.00 38 1014.0
20260830212455 100 146 2.0 3.0 0.00 0.00 0.00 38 1014.0
20260830211955 99 174 3.0 4.0 0.00 0.00 0.00 37 1014.0
20260830211455 98 163 2.0 4.0 0.00 0.00 0.00 39 1014.0
20260830210954 98 88 2.0 4.0 0.00 0.00 0.00 40 1014.0
20260830210454 98 97 2.0 4.0 0.00 0.00 0.00 41 1014.0
20260830205955 99 110 2.0 4.0 0.00 0.00 0.00 40 1014.0
20260830205454 98 147 2.0 4.0 0.00 0.00 0.00 40 1014.0
20260830204954 98 166 4.0 6.0 0.00 0.00 0.00 40 1014.0
20260830204454 97 146 2.0 4.0 0.00 0.00 0.00 42 1014.0
20260830203956 97 160 3.0 6.0 0.00 0.00 0.00 41 1014.0
20260830203454 97 163 3.0 5.0 0.00 0.00 0.00 41 1014.0
20260830202954 97 152 2.0 4.0 0.00 0.00 0.00 40 1014.0
20260830202454 96 113 2.0 4.0 0.00 0.00 0.00 42 1014.0
20260830201955 96 121 1.0 3.0 0.00 0.00 0.00 44 1015.0
20260830201455 97 126 1.0 2.0 0.00 0.00 0.00 44 1015.0
20260830200954 97 173 3.0 5.0 0.00 0.00 0.00 43 1015.0
20260830200455 97 145 2.0 4.0 0.00 0.00 0.00 44 1015.0
20260830195954 97 184 4.0 5.0 0.00 0.00 0.00 43 1015.0
20260830195454 96 115 2.0 4.0 0.00 0.00 0.00 44 1015.0
20260830194954 96 175 3.0 6.0 0.00 0.00 0.00 44 1015.0
20260830194454 97 179 2.0 3.0 0.00 0.00 0.00 44 1015.0
20260830193954 96 136 2.0 3.0 0.00 0.00 0.00 45 1015.0
20260830193454 96 91 2.0 2.0 0.00 0.00 0.00 45 1015.0
20260830192954 96 187 4.0 8.0 0.00 0.00 0.00 45 1015.0
20260830192455 96 76 2.0 3.0 0.00 0.00 0.00 46 1015.0
20260830191954 96 107 2.0 4.0 0.00 0.00 0.00 45 1015.0
20260830191454 96 170 5.0 9.0 0.00 0.00 0.00 45 1016.0
20260830190954 95 159 2.0 4.0 0.00 0.00 0.00 45 1016.0
20260830190454 95 79 2.0 3.0 0.00 0.00 0.00 47 1016.0
20260830185954 94 136 3.0 6.0 0.00 0.00 0.00 47 1016.0
20260830185457 94 126 2.0 4.0 0.00 0.00 0.00 47 1016.0
20260830184954 94 184 3.0 5.0 0.00 0.00 0.00 47 1016.0
20260830184454 94 173 3.0 5.0 0.00 0.00 0.00 48 1016.0
20260830183955 94 172 4.0 6.0 0.00 0.00 0.00 47 1016.0
20260830183454 93 171 4.0 7.0 0.00 0.00 0.00 47 1016.0
20260830182954 93 93 1.0 2.0 0.00 0.00 0.00 49 1016.0
20260830182454 93 169 3.0 5.0 0.00 0.00 0.00 49 1016.0
20260830181954 93 187 5.0 7.0 0.00 0.00 0.00 48 1016.0
20260830181454 93 183 5.0 8.0 0.00 0.00 0.00 50 1016.0
20260830180955 93 178 3.0 4.0 0.00 0.00 0.00 50 1017.0
20260830180455 93 117 3.0 4.0 0.00 0.00 0.00 50 1017.0
20260830175955 94 128 1.0 2.0 0.00 0.00 0.00 49 1017.0
20260830175454 94 174 3.0 4.0 0.00 0.00 0.00 51 1017.0
20260830174954 94 206 2.0 3.0 0.00 0.00 0.00 53 1017.0
20260830174454 93 165 1.0 3.0 0.00 0.00 0.00 54 1017.0
20260830173954 93 103 2.0 4.0 0.00 0.00 0.00 51 1017.0
20260830173454 93 182 4.0 6.0 0.00 0.00 0.00 51 1017.0
20260830172955 92 161 2.0 3.0 0.00 0.00 0.00 53 1017.0
20260830172454 92 160 2.0 5.0 0.00 0.00 0.00 54 1017.0
20260830171954 92 180 5.0 7.0 0.00 0.00 0.00 54 1017.0
20260830171454 92 132 2.0 3.0 0.00 0.00 0.00 53 1017.0
20260830170955 91 187 3.0 6.0 0.00 0.00 0.00 54 1018.0
20260830170455 91 166 3.0 6.0 0.00 0.00 0.00 55 1018.0
20260830165957 91 179 2.0 4.0 0.00 0.00 0.00 55 1018.0
20260830165454 90 184 3.0 6.0 0.00 0.00 0.00 55 1018.0
20260830164955 90 185 3.0 7.0 0.00 0.00 0.00 58 1018.0
20260830164454 89 167 3.0 5.0 0.00 0.00 0.00 59 1018.0
20260830163954 89 176 2.0 4.0 0.00 0.00 0.00 58 1018.0
20260830163455 89 179 5.0 7.0 0.00 0.00 0.00 59 1018.0
20260830162955 89 148 4.0 6.0 0.00 0.00 0.00 60 1018.0
20260830162455 89 182 3.0 4.0 0.00 0.00 0.00 61 1018.0
20260830161954 89 182 2.0 3.0 0.00 0.00 0.00 60 1018.0
20260830161454 89 144 2.0 2.0 0.00 0.00 0.00 61 1018.0
20260830160955 89 152 3.0 5.0 0.00 0.00 0.00 60 1018.0
20260830160455 88 117 2.0 4.0 0.00 0.00 0.00 61 1018.0
20260830155954 88 173 2.0 4.0 0.00 0.00 0.00 62 1018.0
20260830155455 87 186 3.0 6.0 0.00 0.00 0.00 64 1018.0
20260830154954 87 197 2.0 3.0 0.00 0.00 0.00 64 1018.0
20260830154454 87 172 2.0 4.0 0.00 0.00 0.00 63 1018.0
20260830153954 86 172 1.0 2.0 0.00 0.00 0.00 66 1018.0
20260830153454 86 176 4.0 6.0 0.00 0.00 0.00 66 1018.0
20260830152954 86 188 2.0 3.0 0.00 0.00 0.00 65 1018.0
20260830152454 85 182 3.0 4.0 0.00 0.00 0.00 67 1018.0
20260830151955 85 182 2.0 5.0 0.00 0.00 0.00 67 1018.0
20260830151454 85 175 2.0 3.0 0.00 0.00 0.00 68 1017.0
20260830150958 84 178 2.0 4.0 0.00 0.00 0.00 69 1018.0
20260830150454 84 220 1.0 4.0 0.00 0.00 0.00 71 1018.0
20260830145954 83 166 2.0 4.0 0.00 0.00 0.00 71 1018.0
20260830145507 83 157 2.0 4.0 0.00 0.00 0.00 73 1017.0
20260830144954 83 177 2.0 4.0 0.00 0.00 0.00 73 1018.0
20260830144455 83 174 3.0 8.0 0.00 0.00 0.00 73 1018.0
20260830143954 82 173 3.0 6.0 0.00 0.00 0.00 74 1018.0
20260830143454 82 178 3.0 5.0 0.00 0.00 0.00 74 1018.0
20260830142955 82 169 3.0 6.0 0.00 0.00 0.00 74 1018.0
20260830142454 82 171 2.0 5.0 0.00 0.00 0.00 75 1018.0
20260830141954 81 174 3.0 4.0 0.00 0.00 0.00 76 1018.0
20260830141454 81 217 2.0 5.0 0.00 0.00 0.00 77 1018.0
20260830140955 81 179 3.0 6.0 0.00 0.00 0.00 77 1018.0
20260830140454 81 175 2.0 7.0 0.00 0.00 0.00 78 1018.0
20260830135954 80 177 2.0 4.0 0.00 0.00 0.00 79 1018.0
20260830135454 80 212 2.0 5.0 0.00 0.00 0.00 80 1018.0
20260830134954 80 176 2.0 4.0 0.00 0.00 0.00 80 1018.0
20260830134454 79 174 4.0 9.0 0.00 0.00 0.00 81 1018.0
20260830133954 79 171 3.0 5.0 0.00 0.00 0.00 82 1017.0
20260830133454 79 169 2.0 5.0 0.00 0.00 0.00 83 1017.0
20260830132957 79 169 4.0 6.0 0.00 0.00 0.00 83 1017.0
20260830132456 78 171 2.0 6.0 0.00 0.00 0.00 84 1017.0
20260830131954 78 166 4.0 7.0 0.00 0.00 0.00 84 1017.0
20260830131454 78 169 3.0 5.0 0.00 0.00 0.00 84 1017.0